NOAA 16 DEB, 41532

Orbit data source: Space-Track

NOAA 16 DEB, 41532 is space debris in SSO originally from a launch on Thu, 21 Sep 2000 UTC launched from the Air Force Western Test Range (AFWTR). Debris objects in space refer to the collection of defunct objects orbiting the Earth. Examples of debris include non-operational satellites, rocket bodies, and fragments generated from explosions, collisions, or faulty payload assembly.

Loading next visibility...
Identifier
41532, 2000-055NG
Orbit
SSO
Country
Flag of USUS
Related business
Manufacturer
Unknown
Mission
Spacecraft
Bus & Motor
Unknown
Mass
Unknown
Launch date (UTC)
2000-09-21 (26 years ago)
Launch vehicle
Unknown
Launch site
Air Force Western Test Range (AFWTR)
Object type
Payload
Rocket body
Debris
Shape & HBR
Unknown shape, 0.1 m
Radar Cross Section
Medium (>0.1 m² and <1 m²)

Expand to show TLE details & history
Last TLE update: 1 day ago

TLE from 1 day ago
0 NOAA 16 DEB
1 41532U 00055NG  26171.22044235  .00003174  00000-0  11443-2 0  9994
2 41532  98.7393 272.0538 0012153 151.3193 208.8662 14.34336121526731
Epoch: 2026-06-20T05:17Z
TLE epoch observation values (Epoch: 2026-06-20T05:17:26.219Z)
Latitude
0.00001°
Longitude
-75.74364°
Altitude
787.826 km
Speed
7.456 km/s
True Right ascension
18h 08m 12s
True Declination
0° 00' 00"
Sunlit
Object was in full shadow at epoch
Visualization orbit readout
Latitude
Unknown
Longitude
Unknown
Altitude
Unknown
Speed
Unknown
Apparent Right ascension
Unknown
Apparent Declination
Unknown
Sunlit
N/A
Visualization observer readout
Local Sidereal Time
03:27:14
Azimuth
Unknown
Elevation
Unknown
Doppler factor
Unknown
Orbital elements
Apogee altitude
783.107 km
Perigee altitude
765.722 km
Semi-major axis
7,152.551 km
Eccentricity
0.00122
Inclination
98.7393°
RAAN
272.0538°
Arg. of periapsis
151.3193°
True anomaly
208.79906°
Mean anomaly
208.8662°
Eccentric anomaly
208.83262°
Mean motion
3.58799 °/min
Orbital period
100.33 mins
BSTAR
0.0011443
Loading maneuver chart data...
Computing Atmospheric mass density...
Loading historical data...
Loading historical data...
Loading historical data...
Loading historical data...
Loading historical data...
Loading historical data...
Loading historical data...

Documentation

Showing up to 5 results
|